TimeEDT,TemperatureF,Dew PointF,Humidity,Sea Level PressureIn,VisibilityMPH,Wind Direction,Wind SpeedMPH,Gust SpeedMPH,PrecipitationIn,Events,Conditions,WindDirDegrees,DateUTC
12:33 AM,44.6,42.8,93,30.26,1.8,Calm,Calm,-,N/A,,Clear,0,2013-09-28 04:33:00
12:44 AM,42.8,41.0,93,30.26,0.8,Calm,Calm,-,N/A,,Mist,0,2013-09-28 04:44:00
12:53 AM,42.1,39.9,92,30.26,0.8,Calm,Calm,-,N/A,,Mist,0,2013-09-28 04:53:00
12:58 AM,44.6,41.0,87,30.26,1.2,Calm,Calm,-,N/A,,Partly Cloudy,0,2013-09-28 04:58:00
1:03 AM,44.6,42.8,93,30.26,3.0,Calm,Calm,-,N/A,,Partly Cloudy,0,2013-09-28 05:03:00
1:31 AM,42.8,39.2,87,30.26,1.5,Calm,Calm,-,N/A,,Scattered Clouds,0,2013-09-28 05:31:00
1:37 AM,42.8,39.2,87,30.26,0.8,Calm,Calm,-,N/A,,Mist,0,2013-09-28 05:37:00
1:43 AM,42.8,39.2,87,30.26,1.2,Calm,Calm,-,N/A,,Scattered Clouds,0,2013-09-28 05:43:00
1:53 AM,43.0,41.0,93,30.27,3.0,Calm,Calm,-,N/A,,Scattered Clouds,0,2013-09-28 05:53:00
2:34 AM,41.0,39.2,93,30.26,1.8,Calm,Calm,-,N/A,,Clear,0,2013-09-28 06:34:00
2:53 AM,39.9,39.0,97,30.25,0.8,Calm,Calm,-,N/A,,Mist,0,2013-09-28 06:53:00
3:00 AM,42.8,39.2,87,30.25,1.2,Calm,Calm,-,N/A,,Scattered Clouds,0,2013-09-28 07:00:00
3:03 AM,42.8,39.2,87,30.26,3.0,Calm,Calm,-,N/A,,Partly Cloudy,0,2013-09-28 07:03:00
3:37 AM,39.2,39.2,100,30.26,1.8,Calm,Calm,-,N/A,,Clear,0,2013-09-28 07:37:00
3:47 AM,41.0,39.2,93,30.26,3.0,Calm,Calm,-,N/A,,Clear,0,2013-09-28 07:47:00
3:53 AM,42.1,39.0,89,30.26,10.0,Calm,Calm,-,N/A,,Clear,0,2013-09-28 07:53:00
4:27 AM,41.0,39.2,93,30.26,1.8,Calm,Calm,-,N/A,,Clear,0,2013-09-28 08:27:00
4:37 AM,39.2,37.4,93,30.26,0.5,Calm,Calm,-,N/A,Fog,Fog,0,2013-09-28 08:37:00
4:51 AM,41.0,39.2,93,30.27,2.0,Calm,Calm,-,N/A,,Clear,0,2013-09-28 08:51:00
4:53 AM,41.0,39.0,93,30.27,4.0,Calm,Calm,-,N/A,,Clear,0,2013-09-28 08:53:00
5:53 AM,39.0,37.9,96,30.28,1.5,Calm,Calm,-,N/A,,Clear,0,2013-09-28 09:53:00
6:10 AM,39.2,37.4,93,30.28,2.0,Calm,Calm,-,N/A,,Partly Cloudy,0,2013-09-28 10:10:00
6:26 AM,39.2,37.4,93,30.29,6.0,Calm,Calm,-,N/A,,Scattered Clouds,0,2013-09-28 10:26:00
6:30 AM,39.2,37.4,93,30.29,2.0,Calm,Calm,-,N/A,,Mostly Cloudy,0,2013-09-28 10:30:00
6:37 AM,39.2,37.4,93,30.29,1.8,Calm,Calm,-,N/A,,Mostly Cloudy,0,2013-09-28 10:37:00
6:40 AM,39.2,37.4,93,30.29,3.0,Calm,Calm,-,N/A,,Mostly Cloudy,0,2013-09-28 10:40:00
6:53 AM,41.0,39.0,93,30.30,10.0,Calm,Calm,-,N/A,,Clear,0,2013-09-28 10:53:00
7:53 AM,46.0,44.1,93,30.31,10.0,Calm,Calm,-,N/A,,Clear,0,2013-09-28 11:53:00
8:53 AM,55.0,51.1,86,30.32,10.0,Calm,Calm,-,N/A,,Clear,0,2013-09-28 12:53:00
9:53 AM,63.0,53.1,70,30.32,10.0,Variable,3.5,-,N/A,,Clear,0,2013-09-28 13:53:00
10:53 AM,68.0,53.1,59,30.32,10.0,Variable,5.8,-,N/A,,Clear,0,2013-09-28 14:53:00
11:53 AM,70.0,52.0,53,30.31,10.0,Variable,3.5,-,N/A,,Clear,0,2013-09-28 15:53:00
12:53 PM,71.1,51.1,49,30.30,10.0,NE,8.1,-,N/A,,Clear,50,2013-09-28 16:53:00
1:53 PM,71.1,51.1,49,30.29,10.0,NNE,9.2,-,N/A,,Clear,30,2013-09-28 17:53:00
2:53 PM,71.1,50.0,47,30.28,10.0,NE,8.1,-,N/A,,Clear,40,2013-09-28 18:53:00
3:53 PM,70.0,51.1,51,30.28,10.0,ENE,9.2,-,N/A,,Clear,60,2013-09-28 19:53:00
4:53 PM,68.0,48.9,50,30.28,10.0,ENE,8.1,-,N/A,,Clear,60,2013-09-28 20:53:00
5:53 PM,66.0,51.1,59,30.28,10.0,NE,3.5,-,N/A,,Clear,50,2013-09-28 21:53:00
6:53 PM,57.0,50.0,77,30.28,10.0,Calm,Calm,-,N/A,,Clear,0,2013-09-28 22:53:00
7:53 PM,51.1,48.0,89,30.27,10.0,Calm,Calm,-,N/A,,Clear,0,2013-09-28 23:53:00
8:53 PM,50.0,46.9,89,30.28,10.0,Calm,Calm,-,N/A,,Clear,0,2013-09-29 00:53:00
9:05 PM,48.2,46.4,93,30.28,1.5,Calm,Calm,-,N/A,,Clear,0,2013-09-29 01:05:00
9:16 PM,48.2,46.4,93,30.28,10.0,Calm,Calm,-,N/A,,Clear,0,2013-09-29 01:16:00
9:53 PM,46.9,46.0,97,30.28,10.0,Calm,Calm,-,N/A,,Scattered Clouds,0,2013-09-29 01:53:00
10:00 PM,46.4,44.6,93,30.28,0.2,Calm,Calm,-,N/A,Fog,Fog,0,2013-09-29 02:00:00
10:23 PM,46.4,44.6,93,30.28,1.5,Calm,Calm,-,N/A,,Scattered Clouds,0,2013-09-29 02:23:00
10:26 PM,46.4,44.6,93,30.28,3.0,Calm,Calm,-,N/A,,Scattered Clouds,0,2013-09-29 02:26:00
10:31 PM,46.4,44.6,93,30.28,1.2,Calm,Calm,-,N/A,,Scattered Clouds,0,2013-09-29 02:31:00
10:34 PM,44.6,42.8,93,30.28,0.8,Calm,Calm,-,N/A,,Mist,0,2013-09-29 02:34:00
10:53 PM,44.1,43.0,96,30.28,0.8,Calm,Calm,-,N/A,,Mist,0,2013-09-29 02:53:00
11:26 PM,46.4,44.6,93,30.27,1.5,Calm,Calm,-,N/A,,Mostly Cloudy,0,2013-09-29 03:26:00
11:30 PM,44.6,42.8,93,30.27,0.8,Calm,Calm,-,N/A,,Mist,0,2013-09-29 03:30:00
11:53 PM,44.1,42.1,93,30.27,1.0,Calm,Calm,-,N/A,,Mist,0,2013-09-29 03:53:00
11:57 PM,42.8,41.0,93,30.27,3.0,Calm,Calm,-,N/A,,Mostly Cloudy,0,2013-09-29 03:57:00